Location: Gugi
(45.4667°N, 11.1000°E)
Time: 22:30:44
(UTC+00:00)

Cosmos 2263 Rocket - Pass Details

Date: 24 February 2020
Orbit: 822 x 850 km, 71.0° (Epoch: 05 April)

Event Time Altitude Azimuth Distance (km) Brightness Sun altitude
Rises 21:27:25 0° 337° (NNW) 3,416 6.0 -45.5°
Reaches altitude 10° 21:29:57 10° 342° (NNW) 2,480 5.1 -45.8°
Enters shadow 21:29:58 10° 343° (NNW) 2,474 5.1 -45.8°
